Location: Kumla
(59.1265°N, 15.1401°E)
Time: 15:43:18
(UTC+01:00)

Transit 2A - Pass Details

Date: 12 December 2023
Orbit: 600 x 953 km, 66.7° (Epoch: 21 February)

Event Time Altitude Azimuth Distance (km) Brightness Sun altitude
Rises 15:21:13 0° 232° (SW) 3,071 12.1 -2.6°
Reaches altitude 10° 15:23:37 10° 233° (SW) 2,107 10.3 -2.9°
Maximum altitude 15:28:21 80° 321° (NW) 654 5.7 -3.3°
Drops below altitude 10° 15:32:47 10° 49° (NE) 1,980 7.5 -3.7°
Enters shadow 15:33:53 - 50° (NE) 2,416 7.9 -3.8°
Sets 15:35:00 0° 51° (NE) 2,870 - -4.0°
